This demonstration page uses our WeatherBlox Daily Observations layout. Learn more.

Left ArrowRight Arrow

34.16533, -84.80231

Hourly Observations for February 24, 2022

Temp ( °F °C ) Dew Point ( °F °C ) Humidity (%) Winds ( mph kmh ) Pressure ( in mb ) Visibility ( mi km ) Precip ( " mm )
12:15 am 00:15 Cloudy 61 16 57 14 88 88 VRB 5 7 30.16 1021 10 16 0.00 0.00
12:35 am 00:35 Cloudy 61 16 55 13 83 83 Calm 30.16 1021 10 16 0.00 0.00
12:55 am 00:55 Cloudy 59 15 55 13 88 88 Calm 30.16 1021 10 16 0.00 0.00
1:15 am 01:15 Cloudy 59 15 55 13 88 88 NNW 3 6 30.16 1021 10 16 0.00 0.00
1:35 am 01:35 Cloudy 57 14 54 12 88 88 Calm 30.16 1021 10 16 0.00 0.00
1:55 am 01:55 Cloudy 57 14 54 12 88 88 Calm 30.17 1022 10 16 0.00 0.00
2:15 am 02:15 Cloudy 55 13 54 12 94 94 Calm 30.17 1022 10 16 0.00 0.00
2:35 am 02:35 Cloudy 55 13 52 11 88 88 Calm 30.16 1021 10 16 0.00 0.00
2:55 am 02:55 Cloudy 55 13 52 11 88 88 Calm 30.15 1021 10 16 0.00 0.00
3:15 am 03:15 Cloudy 54 12 52 11 94 94 Calm 30.15 1021 10 16 0.00 0.00
3:35 am 03:35 Cloudy 54 12 52 11 94 94 Calm 30.14 1021 10 16 0.00 0.00
3:55 am 03:55 Cloudy 54 12 52 11 94 94 Calm 30.14 1021 10 16 0.00 0.00
4:15 am 04:15 Cloudy 54 12 52 11 94 94 Calm 30.14 1021 10 16 0.00 0.00
4:35 am 04:35 Mostly Cloudy 54 12 52 11 94 94 Calm 30.15 1021 10 16 0.00 0.00
4:55 am 04:55 Mostly Cloudy 54 12 52 11 94 94 Calm 30.15 1021 10 16 0.00 0.00
5:15 am 05:15 Mostly Cloudy 54 12 52 11 94 94 VRB 6 9 30.17 1022 9 14 0.00 0.00
5:35 am 05:35 Cloudy 54 12 52 11 94 94 Calm 30.17 1022 10 16 0.00 0.00
5:55 am 05:55 Cloudy 54 12 52 11 94 94 Calm 30.18 1022 10 16 0.00 0.00
6:15 am 06:15 Cloudy 54 12 52 11 94 94 Calm 30.17 1022 10 16 0.00 0.00
6:35 am 06:35 Cloudy 54 12 52 11 94 94 Calm 30.18 1022 10 16 0.00 0.00
6:55 am 06:55 Cloudy 54 12 52 11 94 94 Calm 30.18 1022 7 11 0.00 0.00
7:15 am 07:15 Cloudy with Mist and Fog 54 12 52 11 94 94 Calm 30.19 1022 4 6 0.00 0.00
7:35 am 07:35 Cloudy with Mist and Fog 54 12 52 11 94 94 Calm 30.19 1022 2 3 0.00 0.00
7:55 am 07:55 Cloudy with Mist and Fog 54 12 54 12 100 100 Calm 30.20 1023 2 3 0.00 0.00
8:15 am 08:15 Cloudy with Light Rain 54 12 54 12 100 100 Calm 30.21 1023 1 1 0.00 0.00
8:35 am 08:35 Cloudy with Mist and Fog 54 12 54 12 100 100 Calm 30.22 1024 1 2 0.00 0.00
8:55 am 08:55 Cloudy with Mist and Fog 54 12 54 12 100 100 Calm 30.22 1024 1 2 0.00 0.00
9:15 am 09:15 Cloudy with Light Rain 54 12 54 12 100 100 Calm 30.23 1024 1 1 0.00 0.00
9:35 am 09:35 Cloudy with Mist and Fog 55 13 54 12 94 94 Calm 30.23 1024 1 2 0.00 0.00
9:55 am 09:55 Cloudy with Mist and Fog 55 13 55 13 100 100 Calm 30.24 1024 1 1 0.00 0.00
10:15 am 10:15 Cloudy with Mist and Fog 55 13 55 13 100 100 Calm 30.24 1024 2 3 0.00 0.00
10:35 am 10:35 Cloudy with Mist and Fog 57 14 57 14 100 100 Calm 30.25 1024 4 6 0.00 0.00
10:55 am 10:55 Cloudy with Mist and Fog 57 14 57 14 100 100 Calm 30.25 1024 6 10 0.00 0.00
11:15 am 11:15 Cloudy 59 15 57 14 94 94 Calm 30.24 1024 7 11 0.00 0.00
11:35 am 11:35 Cloudy 61 16 59 15 94 94 Calm 30.23 1024 8 13 0.00 0.00
11:55 am 11:55 Cloudy 61 16 59 15 94 94 Calm 30.23 1024 9 14 0.00 0.00
12:15 pm 12:15 Cloudy 63 17 59 15 88 88 Calm 30.23 1024 10 16 0.00 0.00
12:35 pm 12:35 Cloudy 63 17 59 15 88 88 Calm 30.22 1023 9 14 0.00 0.00
12:55 pm 12:55 Cloudy 64 18 59 15 83 83 Calm 30.20 1023 10 16 0.00 0.00
1:15 pm 13:15 Mostly Cloudy 66 19 61 16 83 83 Calm 30.18 1022 10 16 0.00 0.00
1:35 pm 13:35 Partly Cloudy 68 20 61 16 78 78 NNE 3 6 30.17 1022 10 16 0.00 0.00
1:55 pm 13:55 Mostly Cloudy 70 21 61 16 73 73 W 6 9 30.16 1021 10 16 0.00 0.00
2:15 pm 14:15 Mostly Cloudy 70 21 61 16 73 73 N 5 7 30.15 1021 10 16 0.00 0.00
2:35 pm 14:35 Partly Cloudy 72 22 59 15 65 65 VRB 5 7 30.15 1021 10 16 0.00 0.00
2:55 pm 14:55 Mostly Cloudy 72 22 59 15 65 65 WNW 6 9 30.14 1021 9 14 0.00 0.00
3:15 pm 15:15 Partly Cloudy 72 22 59 15 65 65 W 7 11 30.13 1020 10 16 0.00 0.00
3:35 pm 15:35 Mostly Sunny 72 22 59 15 65 65 Calm 30.12 1020 10 16 0.00 0.00
3:55 pm 15:55 Partly Cloudy 72 22 59 15 65 65 VRB 3 6 30.11 1020 10 16 0.00 0.00
4:15 pm 16:15 Partly Cloudy 73 23 59 15 61 61 WSW 3 6 30.10 1019 10 16 0.00 0.00
4:35 pm 16:35 Mostly Sunny 73 23 59 15 61 61 Calm 30.09 1019 10 16 0.00 0.00
4:55 pm 16:55 Sunny 75 24 59 15 57 57 VRB 5 7 30.08 1019 10 16 0.00 0.00
5:15 pm 17:15 Mostly Sunny 75 24 57 14 54 54 VRB 5 7 30.08 1019 10 16 0.00 0.00
5:35 pm 17:35 Mostly Sunny 75 24 57 14 54 54 Calm 30.08 1019 10 16 0.00 0.00
5:55 pm 17:55 Sunny 73 23 57 14 57 57 S 7 11 30.08 1019 10 16 0.00 0.00
6:15 pm 18:15 Sunny 73 23 59 15 61 61 S 3 6 30.08 1019 10 16 0.00 0.00
6:35 pm 18:35 Clear 72 22 59 15 65 65 Calm 30.11 1020 9 14 0.00 0.00
6:55 pm 18:55 Mostly Cloudy 70 21 59 15 69 69 Calm 30.12 1020 10 16 0.00 0.00
7:15 pm 19:15 Cloudy 70 21 59 15 69 69 Calm 30.13 1020 10 16 0.00 0.00
7:35 pm 19:35 Cloudy 68 20 59 15 73 73 Calm 30.13 1020 10 16 0.00 0.00
7:55 pm 19:55 Cloudy 66 19 59 15 78 78 ESE 3 6 30.14 1021 10 16 0.00 0.00
8:15 pm 20:15 Cloudy 64 18 59 15 83 83 Calm 30.15 1021 10 16 0.00 0.00
8:35 pm 20:35 Cloudy 64 18 59 15 83 83 Calm 30.15 1021 10 16 0.00 0.00
8:55 pm 20:55 Mostly Cloudy 64 18 59 15 83 83 Calm 30.15 1021 10 16 0.00 0.00
9:15 pm 21:15 Mostly Cloudy 63 17 59 15 88 88 E 3 6 30.15 1021 10 16 0.00 0.00
9:35 pm 21:35 Cloudy 61 16 59 15 94 94 Calm 30.14 1021 8 13 0.00 0.00
9:55 pm 21:55 Cloudy 61 16 59 15 94 94 Calm 30.14 1021 9 14 0.00 0.00
10:15 pm 22:15 Mostly Cloudy 61 16 59 15 94 94 Calm 30.14 1021 10 16 0.00 0.00
10:35 pm 22:35 Mostly Cloudy 61 16 57 14 88 88 Calm 30.14 1021 10 16 0.00 0.00
10:55 pm 22:55 Mostly Cloudy 64 18 59 15 83 83 VRB 5 7 30.14 1021 10 16 0.00 0.00
11:15 pm 23:15 Mostly Cloudy 66 19 59 15 78 78 S 9 15 30.12 1020 10 16 0.00 0.00
11:35 pm 23:35 Mostly Cloudy 66 19 57 14 73 73 S 9 15 30.12 1020 10 16 0.00 0.00
11:55 pm 23:55 Partly Cloudy 66 19 57 14 73 73 S 8 13 30.11 1020 10 16 0.00 0.00

Powered by AerisWeather